Find Starlink 37387

NORAD ID: 68973 Int'l Des: 2026-099 Owner: SPXS Country: US Constellation: starlink operational
LEOCIRCULAR

当前视图

正在加载3D地球...

About Starlink 37387

Starlink 37387 (NORAD 68973) is a starlink constellation satellite (v2 mini) launched May 1, 2026 by SPXS of US. It operates in LEO, CIRCULAR orbit with a mass of 575.00 kg.

关于 Starlink 37387

正在加载描述...

即将过境

Passes for default location (London). Set your location on the main map for personalized predictions.

高度历史

Loading altitude history...

两行轨道根数

1 68973U 26099Y 26171.22592935 .00015238 00000-0 44648-3 0 9991
2 68973 53.1596 146.7615 0001533 83.4669 276.6508 15.35426483 7745
Epoch: Jun 20, 2026 • Age: 7 hours

当前状态

高度 471.8 km
速度 7.63 km/s
星下点 -35.55°S, 101.01°W
发射日期 May 1, 2026
运行时间 0.1 years
类型 internet

技术详情

分类 Payload
质量 575.00 kg
干质量 530.00 kg
总质量 575.00 kg
长度 0.30 m
直径 4.10 m
跨度 29.00 m
形状 Box + pan
制造商 SPXS
平台类型 Starlink V2MO
阶段状态 In Orbit
所有者/国家 SPXS/US

Most Searched